Wind_Speed
37 38 42 43 42 42 43 41 37 35 40 44 45 50 53 55 53 56 58 61 58 61 64 69 71 68 70 74 78 81 80 79 78 79 81 84 87 91 91 97 100 92 85 78
39 42 42 43 45 44 44 45 41 42 45 48 51 54 58 60 59 60 60 60 62 63 70 72 71 70 72 76 77 79 78 78 83 89 89 93 94 97 97 77 64 67 66 65
43 41 45 44 45 47 45 45 44 45 48 51 56 58 61 61 64 65 65 64 67 68 71 75 74 73 74 76 79 80 81 86 89 92 95 97 102 91 55 42 50 57 65 67
43 42 48 50 47 50 50 48 49 51 54 59 60 66 66 68 69 71 67 68 68 67 74 76 74 74 76 79 81 81 86 88 89 95 99 99 95 65 44 41 42 50 62 67
49 50 52 53 52 55 56 55 58 56 58 63 59 69 70 72 74 76 70 69 67 71 74 74 74 75 77 79 79 84 87 87 91 96 102 96 72 52 37 38 35 38 54 71
53 55 53 56 56 59 59 62 63 60 61 65 66 70 75 74 74 77 71 70 72 73 72 72 74 76 76 77 81 85 87 89 94 95 99 76 63 47 37 36 36 35 46 75
58 60 57 60 60 65 66 66 65 62 63 65 67 71 71 73 72 72 71 69 72 71 71 75 75 74 75 78 81 84 85 88 94 99 87 64 62 44 34 36 37 33 43 78
57 61 63 65 64 69 67 67 64 64 65 66 66 71 75 75 74 70 68 71 73 73 74 74 75 76 78 80 83 84 86 87 91 91 68 57 57 43 35 34 38 32 39 76
59 61 66 68 69 70 73 68 64 66 74 74 75 73 78 76 73 72 72 74 73 74 74 74 76 76 79 81 83 86 87 91 97 76 58 56 52 46 43 39 39 33 32 70
62 65 69 73 72 76 69 69 68 73 75 74 73 73 77 71 74 74 74 72 71 74 71 73 75 78 81 81 83 85 88 93 96 66 56 50 47 44 45 45 44 44 37 50
65 71 74 76 78 74 66 69 72 74 74 74 76 78 73 69 71 72 72 70 69 71 70 71 74 77 81 83 84 85 89 93 93 65 56 52 59 62 52 56 52 47 47 39
71 71 78 76 70 67 69 73 71 74 72 76 73 76 70 66 69 71 73 66 69 70 69 71 74 78 80 81 83 85 90 95 92 64 56 56 70 61 66 52 59 54 50 43
71 78 80 71 63 71 71 71 72 73 75 73 70 76 63 65 67 72 69 65 67 67 70 72 75 78 80 82 84 87 94 96 87 64 60 69 70 67 54 47 53 55 49 47
74 79 74 66 64 69 68 69 71 69 73 65 75 67 67 63 68 69 65 66 66 68 71 74 74 77 79 82 85 89 94 96 82 66 66 69 71 59 43 39 46 54 51 46
80 83 71 68 69 70 69 72 71 72 67 70 65 71 58 64 68 68 66 64 65 69 73 74 75 76 79 82 84 89 95 95 74 66 69 71 62 43 31 30 38 51 54 51
79 71 71 69 72 72 72 69 68 68 66 66 65 62 60 64 66 65 63 64 65 71 73 73 74 76 79 82 83 88 96 92 71 67 66 64 51 36 39 40 35 45 56 58
70 73 76 72 74 71 77 68 67 62 60 61 62 58 60 65 65 61 62 63 68 71 70 72 74 76 78 81 84 89 96 90 70 68 69 62 52 47 48 47 40 38 53 61
70 70 70 69 73 75 69 68 61 54 55 59 57 57 63 63 59 58 62 66 69 69 69 71 73 75 79 82 83 89 92 87 70 68 70 61 55 51 48 43 39 35 46 58
66 67 71 71 72 71 68 58 56 54 52 54 57 61 61 59 58 58 63 67 68 69 68 71 74 76 78 80 83 88 89 82 67 64 64 54 51 51 46 38 31 27 39 51
68 68 67 67 66 63 58 51 52 53 53 53 60 58 57 55 55 61 65 66 67 67 67 70 73 76 77 80 83 88 88 79 64 60 57 53 47 49 41 33 22 18 34 44
69 68 61 54 52 53 48 48 53 56 54 56 55 55 53 52 58 63 64 66 67 66 66 68 73 75 77 80 82 86 83 73 60 57 53 48 48 47 39 29 17 11 27 38
61 60 48 45 55 58 53 53 54 55 58 55 54 52 50 54 60 62 64 64 63 62 64 68 69 73 77 81 84 84 78 66 54 51 49 42 42 41 37 25 16 18 23 30
61 51 49 52 59 58 56 54 56 58 58 55 53 48 50 57 60 62 63 60 59 61 64 66 68 71 76 80 85 81 72 58 49 48 46 36 36 37 28 23 16 11 16 25
51 55 54 57 61 64 58 62 61 59 54 50 48 47 54 57 60 60 59 57 58 61 63 64 67 70 75 80 82 78 66 50 46 46 45 33 29 30 24 20 14 6 11 16
62 58 60 65 73 63 72 63 62 53 48 45 47 51 54 57 58 57 54 55 58 60 62 65 67 71 75 79 78 72 57 44 41 45 44 34 27 26 26 21 17 10 3 13
65 68 74 66 66 66 65 61 54 50 45 44 48 52 54 56 55 52 51 53 54 56 61 64 66 71 74 75 72 64 50 39 37 44 43 35 24 23 21 18 11 5 9 11
Wind_Direction
332 335 333 335 333 328 326 316 310 308 305 307 309 310 309 313 313 311 310 309 308 307 310 309 311 312 311 310 308 305 301 300 299 298 297 293 295 293 291 284 280 276 269 260
327 330 333 333 330 326 323 322 316 309 309 308 307 308 309 313 313 312 311 311 308 313 311 312 312 310 312 309 305 302 300 301 300 300 301 302 302 302 296 292 284 268 251 238
324 327 326 325 328 326 323 319 313 309 307 307 306 307 309 313 314 318 314 311 313 315 311 313 312 313 311 308 306 304 304 304 304 305 307 309 308 304 285 287 281 267 241 227
320 323 324 323 325 325 326 324 317 312 309 308 311 309 313 315 317 316 315 313 314 314 313 313 313 312 311 309 308 309 308 309 310 311 310 311 311 303 273 287 300 277 248 222
319 320 322 322 322 323 322 320 317 315 311 306 316 310 312 316 320 318 317 315 314 314 315 313 312 312 310 310 311 309 311 312 313 312 314 316 308 296 276 283 290 288 252 217
309 311 315 319 318 318 319 322 317 313 311 308 310 314 317 320 320 317 315 316 313 314 314 312 311 310 310 310 310 312 313 313 314 315 317 313 307 291 280 292 298 288 251 216
310 310 313 315 318 321 320 321 317 313 316 313 314 311 319 319 320 315 316 316 314 315 314 312 310 311 311 310 312 313 314 314 317 318 318 312 311 290 280 290 298 294 251 227
306 307 311 315 316 317 320 315 316 312 316 316 315 316 316 319 319 314 314 312 314 315 313 312 312 313 312 313 313 314 315 317 321 321 311 312 309 290 280 290 293 292 252 232
306 307 310 313 313 316 317 316 316 313 315 315 315 317 313 321 316 314 312 314 314 313 312 313 312 313 313 314 316 317 319 323 325 318 310 312 305 298 274 285 295 285 272 234
307 306 307 310 313 313 313 313 315 314 313 315 314 314 314 319 314 312 311 313 313 310 313 311 312 313 315 317 318 320 322 326 326 313 310 309 311 294 278 276 281 278 278 247
307 305 307 309 308 309 307 309 311 309 311 311 313 315 318 315 312 309 310 311 309 309 310 311 312 314 316 318 320 322 325 326 327 311 310 305 309 308 296 277 274 272 266 268
302 303 308 309 305 307 306 307 308 306 310 306 312 312 317 310 307 305 307 310 307 310 312 312 313 313 316 319 321 322 325 326 327 318 316 309 311 305 296 275 261 264 258 261
300 302 307 307 305 309 306 305 305 305 306 312 305 315 311 309 305 303 309 308 310 311 311 312 312 315 318 321 325 325 326 329 328 322 322 322 316 312 298 269 247 251 253 249
293 299 302 301 299 302 303 303 302 303 303 309 307 309 310 307 302 307 308 309 310 311 312 312 314 316 319 325 326 325 327 331 329 325 324 323 321 318 304 275 246 239 242 245
295 300 295 298 299 299 300 302 304 303 306 301 313 305 311 300 305 306 308 310 311 311 313 314 316 317 323 326 327 327 328 331 329 328 328 326 324 318 319 304 263 239 237 242
299 299 298 295 297 298 299 302 304 303 306 304 303 309 299 302 303 305 307 307 310 312 314 314 314 320 324 325 327 328 330 332 329 330 330 332 331 322 315 313 297 252 234 237
296 298 301 301 299 297 295 304 303 303 304 301 302 304 299 301 302 305 306 308 310 313 315 313 318 321 324 325 328 331 331 332 331 330 329 330 326 318 310 307 294 270 238 231
294 294 298 299 297 294 300 303 304 304 302 298 301 300 298 300 302 306 306 308 311 313 314 316 319 323 324 326 331 332 331 333 331 331 329 328 327 325 318 308 297 268 239 222
293 295 296 295 294 296 300 304 304 300 302 299 299 297 299 301 303 304 306 309 311 314 316 318 321 323 324 327 331 331 330 333 330 329 328 330 330 328 323 313 300 269 225 215
297 296 295 295 296 297 303 308 302 298 304 300 297 300 299 301 303 303 307 310 313 315 316 319 320 322 326 328 331 330 330 331 327 328 329 332 330 331 326 316 299 271 219 217
290 293 293 296 297 299 312 305 300 298 299 298 296 294 297 301 302 303 307 311 313 314 317 319 320 322 325 327 328 329 329 329 324 327 330 331 332 333 327 319 294 267 223 223
288 292 289 292 301 310 310 307 298 296 295 294 292 294 299 299 299 303 308 311 312 314 317 319 321 322 324 326 328 329 329 327 321 327 331 326 332 332 333 317 292 253 232 235
289 286 284 288 305 312 313 308 300 296 292 290 290 294 297 297 301 306 309 310 311 314 316 319 321 322 323 325 327 328 329 324 321 326 334 322 330 329 342 335 303 272 244 231
288 292 288 296 308 307 305 303 299 294 289 289 291 295 295 300 305 307 309 311 314 316 317 319 321 322 323 325 327 328 329 320 323 326 339 320 321 325 323 338 346 283 223 209
286 292 298 299 304 297 301 295 292 289 288 290 292 294 299 303 305 307 310 312 314 316 318 319 322 323 324 326 328 329 327 318 326 327 342 334 313 315 319 318 307 287 259 205
297 295 301 301 297 294 293 291 288 284 287 290 292 296 302 304 306 307 310 312 314 317 317 320 322 323 325 327 328 330 325 317 329 328 339 341 320 301 302 317 306 285 267 230
Height
5816 5813 5806 5801 5797 5792 5787 5783 5780 5778 5773 5768 5764 5757 5750 5746 5742 5736 5730 5724 5717 5711 5702 5694 5686 5677 5671 5663 5653 5643 5634 5625 5617 5610 5603 5596 5586 5574 5567 5549 5539 5538 5542 5554
5811 5803 5800 5797 5791 5786 5781 5775 5771 5767 5762 5756 5750 5746 5738 5733 5730 5725 5718 5709 5701 5695 5686 5679 5671 5663 5655 5647 5638 5628 5618 5609 5596 5579 5575 5561 5551 5537 5517 5505 5503 5497 5502 5518
5802 5800 5794 5791 5786 5779 5776 5769 5763 5758 5753 5746 5739 5735 5730 5723 5716 5711 5705 5697 5689 5682 5672 5664 5656 5645 5636 5627 5618 5607 5596 5583 5570 5554 5542 5531 5515 5498 5485 5483 5477 5472 5476 5490
5793 5793 5787 5782 5778 5771 5766 5761 5754 5750 5742 5734 5730 5718 5716 5710 5706 5699 5693 5683 5676 5667 5657 5647 5639 5629 5618 5609 5597 5586 5574 5561 5546 5531 5516 5506 5483 5472 5469 5466 5462 5452 5455 5466
5782 5778 5775 5772 5768 5762 5756 5750 5744 5737 5731 5722 5721 5705 5701 5696 5691 5682 5677 5669 5663 5652 5644 5634 5624 5614 5603 5592 5581 5568 5556 5542 5527 5512 5490 5474 5463 5454 5454 5452 5447 5441 5439 5448
5775 5770 5768 5762 5757 5752 5746 5740 5732 5726 5718 5710 5703 5692 5685 5679 5674 5665 5660 5654 5646 5638 5630 5618 5608 5599 5590 5578 5567 5552 5537 5522 5507 5492 5477 5459 5447 5441 5440 5437 5433 5431 5426 5434
5761 5756 5755 5751 5745 5738 5733 5728 5719 5713 5705 5696 5690 5682 5678 5665 5659 5646 5643 5638 5629 5622 5613 5602 5593 5584 5574 5563 5550 5538 5524 5509 5490 5472 5456 5445 5435 5428 5428 5425 5421 5420 5417 5418
5753 5745 5740 5737 5734 5727 5721 5715 5712 5698 5693 5688 5681 5671 5663 5656 5651 5640 5633 5624 5616 5605 5596 5586 5575 5566 5556 5545 5532 5519 5506 5493 5476 5455 5440 5433 5423 5418 5417 5415 5410 5407 5406 5407
5741 5737 5730 5726 5721 5716 5708 5702 5697 5686 5677 5672 5667 5663 5643 5646 5634 5627 5618 5610 5601 5591 5581 5570 5560 5550 5539 5528 5514 5498 5485 5474 5455 5438 5428 5421 5412 5408 5406 5403 5401 5399 5395 5397
5728 5721 5718 5713 5709 5703 5697 5689 5684 5674 5661 5656 5652 5645 5633 5631 5619 5612 5605 5597 5588 5577 5569 5557 5544 5534 5522 5511 5496 5483 5467 5449 5435 5422 5415 5408 5401 5395 5393 5392 5390 5389 5387 5389
5713 5710 5705 5701 5694 5688 5684 5677 5673 5662 5653 5642 5635 5633 5627 5617 5608 5598 5592 5585 5575 5566 5557 5544 5532 5520 5506 5493 5480 5467 5452 5438 5423 5406 5400 5393 5386 5380 5375 5373 5373 5373 5372 5376
5705 5697 5691 5688 5678 5673 5669 5665 5658 5647 5643 5628 5625 5619 5616 5606 5592 5585 5581 5575 5562 5551 5542 5531 5519 5507 5497 5486 5473 5457 5442 5426 5406 5392 5383 5376 5366 5356 5348 5347 5349 5354 5356 5360
5692 5682 5675 5672 5667 5660 5655 5652 5644 5636 5626 5624 5607 5606 5600 5593 5581 5569 5567 5559 5548 5539 5529 5518 5506 5493 5481 5470 5457 5441 5424 5408 5388 5375 5366 5355 5342 5327 5315 5315 5322 5330 5336 5339
5677 5672 5669 5664 5658 5646 5644 5640 5633 5625 5611 5611 5597 5594 5585 5576 5564 5557 5551 5544 5535 5525 5514 5504 5494 5482 5470 5455 5440 5426 5411 5389 5372 5358 5348 5336 5321 5305 5297 5296 5300 5308 5316 5322
5659 5654 5648 5648 5643 5637 5631 5621 5618 5610 5605 5590 5596 5571 5578 5560 5551 5544 5538 5530 5519 5508 5499 5487 5476 5467 5454 5441 5428 5412 5395 5376 5358 5344 5333 5320 5304 5294 5288 5286 5285 5290 5298 5302
5640 5633 5630 5629 5624 5619 5615 5611 5605 5597 5590 5577 5571 5570 5550 5549 5539 5534 5525 5516 5507 5496 5485 5474 5463 5451 5441 5428 5415 5399 5379 5362 5345 5331 5320 5307 5294 5287 5280 5276 5273 5274 5280 5285
5626 5621 5614 5606 5603 5600 5594 5601 5591 5585 5575 5563 5555 5553 5544 5535 5527 5520 5510 5502 5493 5483 5472 5461 5449 5438 5428 5416 5399 5382 5364 5348 5332 5319 5307 5298 5287 5278 5269 5262 5258 5256 5260 5270
5611 5606 5598 5591 5583 5579 5584 5581 5573 5568 5563 5549 5543 5537 5526 5520 5514 5508 5498 5489 5478 5468 5458 5444 5434 5426 5412 5401 5386 5368 5350 5333 5320 5309 5297 5288 5277 5265 5254 5247 5241 5237 5241 5255
5597 5590 5582 5574 5567 5564 5570 5562 5556 5548 5549 5537 5531 5523 5515 5506 5499 5492 5485 5475 5465 5455 5444 5432 5418 5409 5399 5387 5374 5357 5340 5324 5311 5301 5288 5278 5267 5256 5245 5235 5229 5226 5232 5246
5576 5571 5568 5559 5551 5545 5550 5547 5541 5534 5533 5527 5516 5512 5504 5495 5488 5478 5471 5461 5451 5440 5430 5422 5408 5395 5385 5373 5361 5344 5328 5317 5306 5295 5280 5269 5260 5249 5238 5229 5224 5222 5229 5241
5561 5555 5551 5544 5535 5536 5539 5532 5524 5518 5518 5510 5506 5498 5492 5487 5480 5470 5460 5450 5439 5429 5422 5412 5398 5384 5374 5363 5353 5339 5320 5306 5295 5287 5273 5263 5253 5244 5233 5226 5223 5223 5229 5237
5546 5539 5537 5531 5521 5519 5523 5517 5512 5506 5498 5494 5489 5484 5479 5474 5468 5460 5450 5439 5429 5420 5410 5402 5393 5380 5363 5349 5339 5325 5310 5299 5288 5280 5267 5258 5249 5241 5231 5224 5220 5221 5225 5230
5530 5528 5523 5519 5512 5504 5502 5498 5494 5490 5486 5481 5475 5471 5465 5459 5453 5445 5437 5430 5421 5412 5403 5394 5384 5371 5355 5340 5326 5315 5302 5290 5281 5272 5261 5252 5245 5239 5231 5223 5218 5217 5217 5220
5516 5510 5507 5502 5502 5492 5485 5478 5475 5473 5469 5466 5462 5458 5452 5446 5438 5429 5423 5416 5407 5400 5392 5383 5373 5361 5347 5331 5316 5302 5292 5282 5273 5266 5256 5246 5242 5237 5231 5226 5220 5216 5217 5218
5501 5495 5492 5490 5486 5476 5472 5465 5457 5458 5454 5451 5447 5443 5439 5433 5426 5418 5411 5404 5397 5389 5379 5368 5358 5346 5334 5320 5306 5295 5284 5276 5268 5260 5251 5241 5236 5234 5229 5226 5223 5222 5223 5224
5484 5482 5475 5469 5468 5460 5456 5450 5445 5442 5439 5436 5434 5430 5424 5418 5412 5406 5400 5393 5386 5378 5368 5357 5345 5334 5321 5309 5298 5287 5277 5269 5262 5255 5246 5237 5230 5227 5226 5224 5222 5221 5222 5225